User: anonymous   Login
Location: Mercogliano
(40.9167°N, 14.7333°E)
Time: 23:21:52
(UTC+00:00)
Language:

Okean-O - Orbit

View from above orbital plane
View from above orbital plane
View from above satellite
View from above satellite

Ground track
Ground track

The orbit data is extracted from the following two-line orbital elements,

1 25860U 99039A   20332.33942828 +.00000119 +00000-0 +24642-4 0  9993
2 25860 098.2037 354.0900 0001838 084.9790 275.1629 14.76692972149559
Epoch (UTC): 27 November 2020 08:08:46
Eccentricity: 0.0001838
inclination: 98.2037°
perigee height: 638 km
apogee height: 641 km
right ascension of ascending node: 354.0900°
argument of perigee: 84.9790°
revolutions per day: 14.76692972
mean anomaly at epoch: 275.1629°
orbit number at epoch: 14955

The dashed part of the orbit path shows where the satellite is in the earth's shadow,  

DLR